Location: *
(46.1200°N, 11.2700°E)
Time: 14:51:30
(UTC+00:00)

SJ-6B - Pass Details

Date: 02 March 2021
Orbit: 509 x 581 km, 97.6° (Epoch: 22 April)

Event Time Altitude Azimuth Distance (km) Brightness Sun altitude
Exits shadow 17:51:53 12° 100° (E) 1,764 4.7 -9.3°
Maximum altitude 17:54:05 17° 64° (ENE) 1,471 4.5 -9.7°
Drops below altitude 10° 17:56:47 10° 22° (NNE) 1,882 5.3 -10.1°
Sets 17:59:29 0° 3° (N) 2,772 6.4 -10.6°
